Time,TemperatureF,DewpointF,PressureIn,WindDirection,WindDirectionDegrees,WindSpeedMPH,WindSpeedGustMPH,Humidity,HourlyPrecipIn,Conditions,Clouds,dailyrainin,SolarRadiationWatts/m^2,SoftwareType,DateUTC
2013-08-07 00:01:00,54.0,52.0,-100.00,SSE,151,1.0,4.0,95,0.00,,,0.00,0.000000,,2013-08-07 08:01:00,
2013-08-07 00:11:00,54.0,52.0,-100.00,SSE,151,1.0,4.0,95,0.00,,,0.00,0.000000,,2013-08-07 08:11:00,
2013-08-07 00:21:00,54.0,52.0,-100.00,SSE,151,1.0,4.0,95,0.00,,,0.00,0.000000,,2013-08-07 08:21:00,
2013-08-07 00:44:00,52.0,50.0,-100.00,SSE,163,2.0,5.0,95,0.00,,,0.00,0.000000,,2013-08-07 08:44:00,
2013-08-07 00:52:00,52.0,50.0,-100.00,SSE,163,2.0,5.0,95,0.00,,,0.00,0.000000,,2013-08-07 08:52:00,
2013-08-07 01:01:00,52.0,50.0,-100.00,SSE,163,2.0,5.0,95,0.00,,,0.00,0.000000,,2013-08-07 09:01:00,
2013-08-07 01:11:00,52.0,50.0,-100.00,SSE,163,2.0,5.0,95,0.00,,,0.00,0.000000,,2013-08-07 09:11:00,
2013-08-07 01:21:00,52.0,50.0,-100.00,SSE,163,2.0,5.0,95,0.00,,,0.00,0.000000,,2013-08-07 09:21:00,
2013-08-07 01:54:00,50.0,49.0,-100.00,South,182,0.0,2.0,97,0.00,,,0.00,0.000000,,2013-08-07 09:54:00,
2013-08-07 02:01:00,50.0,49.0,-100.00,South,182,0.0,2.0,97,0.00,,,0.00,0.000000,,2013-08-07 10:01:00,
2013-08-07 02:11:00,50.0,49.0,-100.00,South,182,0.0,2.0,97,0.00,,,0.00,0.000000,,2013-08-07 10:11:00,
2013-08-07 02:21:00,50.0,49.0,-100.00,South,182,0.0,2.0,97,0.00,,,0.00,0.000000,,2013-08-07 10:21:00,
2013-08-07 02:43:00,48.0,47.0,-100.00,SSE,167,2.0,3.0,96,0.00,,,0.00,0.000000,,2013-08-07 10:43:00,
2013-08-07 02:52:00,48.0,47.0,-100.00,SSE,167,2.0,3.0,96,0.00,,,0.00,0.000000,,2013-08-07 10:52:00,
2013-08-07 03:01:00,48.0,47.0,-100.00,SSE,167,2.0,3.0,96,0.00,,,0.00,0.000000,,2013-08-07 11:01:00,
2013-08-07 03:11:00,48.0,47.0,-100.00,SSE,167,2.0,3.0,96,0.00,,,0.00,0.000000,,2013-08-07 11:11:00,
2013-08-07 03:22:00,48.0,47.0,-100.00,SSE,167,2.0,3.0,96,0.00,,,0.00,0.000000,,2013-08-07 11:22:00,
2013-08-07 03:43:00,48.0,47.0,-100.00,South,183,1.0,3.0,97,0.00,,,0.00,0.000000,,2013-08-07 11:43:00,
2013-08-07 03:53:00,48.0,47.0,-100.00,South,183,1.0,3.0,97,0.00,,,0.00,0.000000,,2013-08-07 11:53:00,
2013-08-07 04:02:00,48.0,47.0,-100.00,South,183,1.0,3.0,97,0.00,,,0.00,0.000000,,2013-08-07 12:02:00,
2013-08-07 04:11:00,48.0,47.0,-100.00,South,183,1.0,3.0,97,0.00,,,0.00,0.000000,,2013-08-07 12:11:00,
2013-08-07 04:22:00,48.0,47.0,-100.00,South,183,1.0,3.0,97,0.00,,,0.00,0.000000,,2013-08-07 12:22:00,
2013-08-07 04:43:00,48.0,47.0,-100.00,South,176,1.0,2.0,97,0.00,,,0.00,0.000000,,2013-08-07 12:43:00,
2013-08-07 04:52:00,48.0,47.0,-100.00,South,176,1.0,2.0,97,0.00,,,0.00,0.000000,,2013-08-07 12:52:00,
2013-08-07 05:02:00,48.0,47.0,-100.00,South,176,1.0,2.0,97,0.00,,,0.00,0.000000,,2013-08-07 13:02:00,
2013-08-07 05:11:00,48.0,47.0,-100.00,South,176,1.0,2.0,97,0.00,,,0.00,0.000000,,2013-08-07 13:11:00,
2013-08-07 05:22:00,48.0,47.0,-100.00,South,176,1.0,2.0,97,0.00,,,0.00,0.000000,,2013-08-07 13:22:00,
2013-08-07 05:44:00,48.0,48.0,-100.00,SSE,156,1.0,2.0,98,0.00,,,0.00,0.000000,,2013-08-07 13:44:00,
2013-08-07 05:53:00,48.0,48.0,-100.00,SSE,156,1.0,2.0,98,0.00,,,0.00,0.000000,,2013-08-07 13:53:00,
2013-08-07 06:01:00,48.0,48.0,-100.00,SSE,156,1.0,2.0,98,0.00,,,0.00,0.000000,,2013-08-07 14:01:00,
2013-08-07 06:11:00,48.0,48.0,-100.00,SSE,156,1.0,2.0,98,0.00,,,0.00,0.000000,,2013-08-07 14:11:00,
2013-08-07 06:22:00,48.0,48.0,-100.00,SSE,156,1.0,2.0,98,0.00,,,0.00,0.000000,,2013-08-07 14:22:00,
2013-08-07 06:43:00,48.0,47.0,-100.00,SSE,168,1.0,2.0,97,0.00,,,0.00,13.000000,,2013-08-07 14:43:00,
2013-08-07 06:52:00,48.0,47.0,-100.00,SSE,168,1.0,2.0,97,0.00,,,0.00,13.000000,,2013-08-07 14:52:00,
2013-08-07 07:02:00,48.0,47.0,-100.00,SSE,168,1.0,2.0,97,0.00,,,0.00,13.000000,,2013-08-07 15:02:00,
2013-08-07 07:12:00,48.0,47.0,-100.00,SSE,168,1.0,2.0,97,0.00,,,0.00,13.000000,,2013-08-07 15:12:00,
2013-08-07 07:22:00,48.0,47.0,-100.00,SSE,168,1.0,2.0,97,0.00,,,0.00,13.000000,,2013-08-07 15:22:00,
2013-08-07 07:43:00,48.0,47.0,-100.00,South,171,1.0,2.0,96,0.00,,,0.00,52.000000,,2013-08-07 15:43:00,
2013-08-07 07:53:00,48.0,47.0,-100.00,South,171,1.0,2.0,96,0.00,,,0.00,52.000000,,2013-08-07 15:53:00,
2013-08-07 08:02:00,48.0,47.0,-100.00,South,171,1.0,2.0,96,0.00,,,0.00,52.000000,,2013-08-07 16:02:00,
2013-08-07 08:11:00,48.0,47.0,-100.00,South,171,1.0,2.0,96,0.00,,,0.00,52.000000,,2013-08-07 16:11:00,
2013-08-07 09:01:00,50.0,48.0,-100.00,SSE,161,2.0,3.0,93,-99.99,,,0.00,104.000000,,2013-08-07 17:01:00,
2013-08-07 09:43:00,54.0,49.0,-100.00,SSE,162,1.0,2.0,84,-99.99,,,0.00,161.000000,,2013-08-07 17:43:00,
2013-08-07 09:52:00,54.0,49.0,-100.00,SSE,162,1.0,2.0,84,-99.99,,,0.00,161.000000,,2013-08-07 17:52:00,
2013-08-07 10:02:00,54.0,49.0,-100.00,SSE,162,1.0,2.0,84,-99.99,,,0.00,161.000000,,2013-08-07 18:02:00,
2013-08-07 10:11:00,54.0,49.0,-100.00,SSE,162,1.0,2.0,84,-99.99,,,0.00,161.000000,,2013-08-07 18:11:00,
2013-08-07 10:22:00,54.0,49.0,-100.00,SSE,162,1.0,2.0,84,-99.99,,,0.00,161.000000,,2013-08-07 18:22:00,
2013-08-07 10:52:00,59.0,51.0,-100.00,SSE,162,0.0,2.0,74,0.00,,,0.00,334.000000,,2013-08-07 18:52:00,
2013-08-07 11:01:00,59.0,51.0,-100.00,SSE,162,0.0,2.0,74,0.00,,,0.00,334.000000,,2013-08-07 19:01:00,
2013-08-07 11:11:00,59.0,51.0,-100.00,SSE,162,0.0,2.0,74,0.00,,,0.00,334.000000,,2013-08-07 19:11:00,
2013-08-07 11:22:00,59.0,51.0,-100.00,SSE,162,0.0,2.0,74,0.00,,,0.00,334.000000,,2013-08-07 19:22:00,
2013-08-07 11:44:00,63.0,52.0,-100.00,WNW,288,3.0,4.0,68,0.00,,,0.00,435.000000,,2013-08-07 19:44:00,
2013-08-07 11:52:00,63.0,52.0,-100.00,WNW,288,3.0,4.0,68,0.00,,,0.00,435.000000,,2013-08-07 19:52:00,
2013-08-07 12:02:00,63.0,52.0,-100.00,WNW,288,3.0,4.0,68,0.00,,,0.00,435.000000,,2013-08-07 20:02:00,
2013-08-07 12:11:00,63.0,52.0,-100.00,WNW,288,3.0,4.0,68,0.00,,,0.00,435.000000,,2013-08-07 20:11:00,
2013-08-07 12:22:00,63.0,52.0,-100.00,WNW,288,3.0,4.0,68,0.00,,,0.00,435.000000,,2013-08-07 20:22:00,
2013-08-07 12:43:00,61.0,48.0,-100.00,WNW,302,1.0,4.0,63,0.00,,,0.00,396.000000,,2013-08-07 20:43:00,
2013-08-07 12:52:00,61.0,48.0,-100.00,WNW,302,1.0,4.0,63,0.00,,,0.00,396.000000,,2013-08-07 20:52:00,
2013-08-07 13:01:00,61.0,48.0,-100.00,WNW,302,1.0,4.0,63,0.00,,,0.00,396.000000,,2013-08-07 21:01:00,
2013-08-07 13:11:00,61.0,48.0,-100.00,WNW,302,1.0,4.0,63,0.00,,,0.00,396.000000,,2013-08-07 21:11:00,
2013-08-07 13:22:00,61.0,48.0,-100.00,WNW,302,1.0,4.0,63,0.00,,,0.00,396.000000,,2013-08-07 21:22:00,
2013-08-07 13:52:00,64.0,51.0,-100.00,NNW,339,2.0,5.0,62,0.00,,,0.00,473.000000,,2013-08-07 21:52:00,
2013-08-07 14:01:00,64.0,51.0,-100.00,NNW,339,2.0,5.0,62,0.00,,,0.00,473.000000,,2013-08-07 22:01:00,
2013-08-07 14:12:00,64.0,51.0,-100.00,NNW,339,2.0,5.0,62,0.00,,,0.00,473.000000,,2013-08-07 22:12:00,
2013-08-07 14:22:00,64.0,51.0,-100.00,NNW,339,2.0,5.0,62,0.00,,,0.00,473.000000,,2013-08-07 22:22:00,
2013-08-07 14:43:00,68.0,53.0,-100.00,WNW,293,2.0,5.0,59,0.00,,,0.00,489.000000,,2013-08-07 22:43:00,
2013-08-07 14:52:00,68.0,53.0,-100.00,WNW,293,2.0,5.0,59,0.00,,,0.00,489.000000,,2013-08-07 22:52:00,
2013-08-07 15:01:00,68.0,53.0,-100.00,WNW,293,2.0,5.0,59,0.00,,,0.00,489.000000,,2013-08-07 23:01:00,
2013-08-07 15:11:00,68.0,53.0,-100.00,WNW,293,2.0,5.0,59,0.00,,,0.00,489.000000,,2013-08-07 23:11:00,
2013-08-07 15:22:00,68.0,53.0,-100.00,WNW,293,2.0,5.0,59,0.00,,,0.00,489.000000,,2013-08-07 23:22:00,
2013-08-07 15:43:00,66.0,52.0,-100.00,NNW,346,1.0,3.0,61,0.00,,,0.00,274.000000,,2013-08-07 23:43:00,
2013-08-07 15:52:00,66.0,52.0,-100.00,NNW,346,1.0,3.0,61,0.00,,,0.00,274.000000,,2013-08-07 23:52:00,
2013-08-07 16:01:00,66.0,52.0,-100.00,NNW,346,1.0,3.0,61,0.00,,,0.00,274.000000,,2013-08-08 00:01:00,
2013-08-07 16:11:00,66.0,52.0,-100.00,NNW,346,1.0,3.0,61,0.00,,,0.00,274.000000,,2013-08-08 00:11:00,
2013-08-07 16:22:00,66.0,52.0,-100.00,NNW,346,1.0,3.0,61,0.00,,,0.00,274.000000,,2013-08-08 00:22:00,
2013-08-07 16:43:00,66.0,52.0,-100.00,North,359,2.0,4.0,60,0.00,,,0.00,189.000000,,2013-08-08 00:43:00,
2013-08-07 16:52:00,66.0,52.0,-100.00,North,359,2.0,4.0,60,0.00,,,0.00,189.000000,,2013-08-08 00:52:00,
2013-08-07 17:02:00,66.0,52.0,-100.00,North,359,2.0,4.0,60,0.00,,,0.00,189.000000,,2013-08-08 01:02:00,
2013-08-07 17:11:00,66.0,52.0,-100.00,North,359,2.0,4.0,60,0.00,,,0.00,189.000000,,2013-08-08 01:11:00,
2013-08-07 17:21:00,66.0,52.0,-100.00,North,359,2.0,4.0,60,0.00,,,0.00,189.000000,,2013-08-08 01:21:00,
2013-08-07 17:52:00,68.0,48.0,-100.00,North,358,3.0,7.0,48,0.00,,,0.00,331.000000,,2013-08-08 01:52:00,
2013-08-07 18:02:00,68.0,48.0,-100.00,North,358,3.0,7.0,48,0.00,,,0.00,331.000000,,2013-08-08 02:02:00,
2013-08-07 18:11:00,68.0,48.0,-100.00,North,358,3.0,7.0,48,0.00,,,0.00,331.000000,,2013-08-08 02:11:00,
2013-08-07 18:21:00,68.0,48.0,-100.00,North,358,3.0,7.0,48,0.00,,,0.00,331.000000,,2013-08-08 02:21:00,
2013-08-07 18:43:00,70.0,52.0,-100.00,North,5,3.0,7.0,54,0.00,,,0.00,388.000000,,2013-08-08 02:43:00,
2013-08-07 18:52:00,70.0,52.0,-100.00,North,5,3.0,7.0,54,0.00,,,0.00,388.000000,,2013-08-08 02:52:00,
2013-08-07 19:01:00,70.0,52.0,-100.00,North,5,3.0,7.0,54,0.00,,,0.00,388.000000,,2013-08-08 03:01:00,
2013-08-07 19:12:00,70.0,52.0,-100.00,North,5,3.0,7.0,54,0.00,,,0.00,388.000000,,2013-08-08 03:12:00,
2013-08-07 19:21:00,70.0,52.0,-100.00,North,5,3.0,7.0,54,0.00,,,0.00,388.000000,,2013-08-08 03:21:00,
2013-08-07 19:52:00,68.0,53.0,-100.00,North,357,2.0,5.0,59,0.00,,,0.00,286.000000,,2013-08-08 03:52:00,
2013-08-07 20:01:00,68.0,53.0,-100.00,North,357,2.0,5.0,59,0.00,,,0.00,286.000000,,2013-08-08 04:01:00,
2013-08-07 20:11:00,68.0,53.0,-100.00,North,357,2.0,5.0,59,0.00,,,0.00,286.000000,,2013-08-08 04:11:00,
2013-08-07 20:21:00,68.0,53.0,-100.00,North,357,2.0,5.0,59,0.00,,,0.00,286.000000,,2013-08-08 04:21:00,
2013-08-07 20:44:00,63.0,56.0,-100.00,NNW,339,0.0,3.0,79,0.00,,,0.00,54.000000,,2013-08-08 04:44:00,
2013-08-07 20:53:00,63.0,56.0,-100.00,NNW,339,0.0,3.0,79,0.00,,,0.00,54.000000,,2013-08-08 04:53:00,
2013-08-07 21:01:00,63.0,56.0,-100.00,NNW,339,0.0,3.0,79,0.00,,,0.00,54.000000,,2013-08-08 05:01:00,
2013-08-07 21:11:00,63.0,56.0,-100.00,NNW,339,0.0,3.0,79,0.00,,,0.00,54.000000,,2013-08-08 05:11:00,
2013-08-07 21:21:00,63.0,56.0,-100.00,NNW,339,0.0,3.0,79,0.00,,,0.00,54.000000,,2013-08-08 05:21:00,
2013-08-07 21:52:00,59.0,57.0,-100.00,SSE,166,0.0,2.0,92,0.00,,,0.00,9.000000,,2013-08-08 05:52:00,
2013-08-07 22:01:00,59.0,57.0,-100.00,SSE,166,0.0,2.0,92,0.00,,,0.00,9.000000,,2013-08-08 06:01:00,
2013-08-07 22:11:00,59.0,57.0,-100.00,SSE,166,0.0,2.0,92,0.00,,,0.00,9.000000,,2013-08-08 06:11:00,
2013-08-07 22:21:00,59.0,57.0,-100.00,SSE,166,0.0,2.0,92,0.00,,,0.00,9.000000,,2013-08-08 06:21:00,
2013-08-07 22:52:00,55.0,53.0,-100.00,SSE,162,1.0,4.0,92,0.00,,,0.00,0.000000,,2013-08-08 06:52:00,
2013-08-07 23:01:00,55.0,53.0,-100.00,SSE,162,1.0,4.0,92,0.00,,,0.00,0.000000,,2013-08-08 07:01:00,
2013-08-07 23:12:00,55.0,53.0,-100.00,SSE,162,1.0,4.0,92,0.00,,,0.00,0.000000,,2013-08-08 07:12:00,
2013-08-07 23:22:00,55.0,53.0,-100.00,SSE,162,1.0,4.0,92,0.00,,,0.00,0.000000,,2013-08-08 07:22:00,
2013-08-07 23:43:00,54.0,52.0,-100.00,SSE,164,1.0,3.0,95,0.00,,,0.00,0.000000,,2013-08-08 07:43:00,
2013-08-07 23:53:00,54.0,52.0,-100.00,SSE,164,1.0,3.0,95,0.00,,,0.00,0.000000,,2013-08-08 07:53:00,